{"data":{"norad_id":58194,"intl_designator":"2023-167V","name":"STARLINK-30830","alt_names":[],"object_type":"PAYLOAD","status":"ACTIVE","operator":null,"country":"US","launch_date":"2023-10-30","launch_site_code":"AFETR","launch_vehicle":null,"mission":null,"orbit_class":"UNKNOWN","rcs_meters":null,"size_class":null,"mass_kg":null,"dimensions":null,"purposes":["comms"],"wikipedia_slug":null,"has_3d_model":false,"image_url":null,"decayed_at":null,"tle_current":{"epoch":"2026-09-20T23:07:49.574208Z","epoch_age_seconds":103625,"freshness":"FRESH","line1":"1 58194U 23167V   26263.96376822  .00000316  00000+0  20999-4 0  9990","line2":"2 58194  43.0007 120.2403 0001129 277.4527  82.6197 15.27580015160859","mean_motion":15.27580015,"eccentricity":0.0001129,"inclination_deg":43.0007,"raan_deg":120.2403,"arg_perigee_deg":277.4527,"mean_anomaly_deg":82.6197,"bstar":2.0999e-5,"rev_number":16085,"period_min":94.266747788004,"perigee_km":482.27442321909,"apogee_km":483.82367902943,"semimajor_km":6861.1860511243,"source":"CELESTRAK","updated_at":"2026-09-21T09:00:33.829979Z"}}}